Torna al catalogo

OPS 4682 DEB

AttivoPO
NORAD 38374·DEBRIS·🇺🇸 United States

Lanciato Apr 3, 1965 da Vandenberg Space Force Base

Loading…

Prossimi Passaggi (prossime 24 ore)

TLE

AggiornatoSource: Space-Track

Epoca: Sep 14, 2026, 02:00 UTC

1 38374U 65027CB  26257.08342918  .00000857  00000-0  27681-2 0  9998
2 38374  90.2552  16.0773 0021836 344.7259  15.3202 13.01370153624197

Traccia OPS 4682 DEB in tempo reale con AllMySat

Download on the App Store